This is the latest recevied weather packets stored in our database for station/object KD4PMP. If no packets are shown the sender has not sent any weather packets the latest 10 day(s).
| Time | Temp. | Humidity | Pressure | Rain* | Wind** | Luminosity | Snow |
|---|---|---|---|---|---|---|---|
| 1788314621 | 29.44° C | 68% | 1015.9 hPa | 0 mm | - | - | - |
| 1788314015 | 29.44° C | 67% | 1015.8 hPa | 0 mm | - | - | - |
| 1788313408 | 30° C | 67% | 1015.7 hPa | 0 mm | - | - | - |
| 1788312802 | 30° C | 66% | 1015.5 hPa | 0 mm | - | - | - |
| 1788312195 | 30.56° C | 64% | 1015.6 hPa | 0 mm | - | - | - |
| 1788311589 | 31.11° C | 64% | 1015.4 hPa | 0 mm | - | - | - |
| 1788310983 | 31.11° C | 62% | 1015.3 hPa | 0 mm | - | - | - |
| 1788310376 | 31.67° C | 61% | 1015.2 hPa | 0 mm | - | - | - |
| 1788309770 | 32.22° C | 58% | 1015.2 hPa | 0 mm | - | - | - |
| 1788309163 | 33.33° C | 57% | 1015.3 hPa | 0 mm | - | - | - |
| 1788308557 | 33.33° C | 55% | 1015.2 hPa | 0 mm | - | - | - |
| 1788307951 | 33.89° C | 53% | 1015.1 hPa | 0 mm | - | - | - |
| 1788307345 | 34.44° C | 52% | 1015.2 hPa | 0 mm | - | - | - |
| 1788306738 | 35° C | 52% | 1015.1 hPa | 0 mm | - | - | - |
| 1788306132 | 35.56° C | 50% | 1015.1 hPa | 0 mm | - | - | - |
| 1788305525 | 36.11° C | 49% | 1015.2 hPa | 0 mm | - | - | - |
| 1788304919 | 36.67° C | 48% | 1015.1 hPa | 0 mm | - | - | - |
| 1788304313 | 36.67° C | 48% | 1015.2 hPa | 0 mm | - | - | - |
| 1788303706 | 37.22° C | 47% | 1015.1 hPa | 0 mm | - | - | - |
| 1788303100 | 37.22° C | 46% | 1015.2 hPa | 0 mm | - | - | - |
| 1788302494 | 37.22° C | 46% | 1015.2 hPa | 0 mm | - | - | - |
| 1788301887 | 37.78° C | 46% | 1015.1 hPa | 0 mm | - | - | - |
| 1788301279 | 37.78° C | 45% | 1015.1 hPa | 0 mm | - | - | - |
| 1788300673 | 37.78° C | 46% | 1015.1 hPa | 0 mm | - | - | - |
| 1788300066 | 37.78° C | 47% | 1015.1 hPa | 0 mm | - | - | - |
* Rain latest hour (hover to see other rain measurements)
** Current wind speed in m/s (hover to see current wind gust speed)